Location: Lalanga
(4.5882°N, 32.9072°E)
Time: 21:57:35
(UTC+00:00)

Cosmos 2058 - Pass Details

Date: 24 January 2020
Orbit: 563 x 583 km, 82.5° (Epoch: 20 February)

Event Time Altitude Azimuth Distance (km) Brightness Sun altitude
Rises 16:39:30 0° 171° (S) 2,750 6.5 -10.7°
Reaches altitude 10° 16:41:47 10° 163° (SSE) 1,854 5.5 -11.3°
Maximum altitude 16:45:36 39° 93° (E) 845 3.3 -12.2°
Drops below altitude 10° 16:49:26 10° 24° (NNE) 1,856 5.1 -13.1°
Enters shadow 16:49:40 - 23° (NNE) 1,945 5.2 -13.1°
